Powrót do katalogu

STARLINK-32419

AktywnyŁącznośćVLEO
NORAD 61637·PAYLOAD·🇺🇸 United States

Wystrzelony Oct 23, 2024 z Cape Canaveral Space Force Station

Loading…

Następne Przeloty (najbliższe 24 godziny)

TLE

ŚwieżeSource: CelesTrak SupGP

Epoka: Sep 14, 2026, 21:26 UTC

1 61637C 24191S   26257.89354167 -.00019335  00000+0 -70031-3 0  2578
2 61637  42.9995 166.1434 0001373 264.0938 352.3563 15.27588178    14

Śledź STARLINK-32419 w czasie rzeczywistym z AllMySat

Download on the App Store